General Downing - Peoria International Airport (PIA)


Airport Diagram
Current Weather/Forecast (VFR Conditions)
METAR KPIA 260154Z 00000KT 10SM CLR 24/19 A2997 RMK AO2 SLP143 T02440194
TAF KPIA 252320Z 2600/2624 35004KT P6SM SCT250 FM260800 36003KT 4SM BR FEW250 FM261400 06006KT P6SM SCT250

All Charts
General
Chart Name Download
AIRPORT DIAGRAM
TAKEOFF MINIMUMS
ALTERNATE MINIMUMS
HOT SPOT

Approaches
Chart Name Download
HI-ILS OR LOC RWY 31
ILS OR LOC RWY 04
ILS OR LOC RWY 13
ILS OR LOC RWY 31
ILS RWY 04 (SA CAT I - II)
RNAV (GPS) RWY 04
RNAV (GPS) RWY 13
RNAV (GPS) RWY 22
RNAV (GPS) RWY 31
VOR/DME OR TACAN RWY 31
HI-VOR OR TACAN RWY 31
VOR OR TACAN RWY 13
NDB RWY 31